Meteo pe oră la Almenara

Astăzi, 26 Ianuarie, Marţi

Timp Temperatura Precipitaţii Vânt Presiune Umiditate
00:00 +12°C° 0 mm 3 m/s 729 mmHg 94%
01:00 +12°C° 0 mm 3 m/s 729 mmHg 95%
02:00 +12°C° 0 mm 3 m/s 729 mmHg 95%
03:00 +12°C° 0 mm 3 m/s 729 mmHg 96%
04:00 +12°C° 0 mm 3 m/s 730 mmHg 96%
05:00 +12°C° 0 mm 3 m/s 730 mmHg 96%
06:00 +12°C° 0 mm 3 m/s 730 mmHg 97%
07:00 +12°C° 0 mm 3 m/s 731 mmHg 96%
08:00 +12°C° 0 mm 3 m/s 731 mmHg 95%
09:00 +14°C° 0 mm 2 m/s 731 mmHg 94%
10:00 +14°C° 0 mm 2 m/s 732 mmHg 92%
11:00 +13°C° 0 mm 3 m/s 732 mmHg 90%
12:00 +14°C° 0 mm 3 m/s 732 mmHg 89%
13:00 +14°C° 0.1 mm 2 m/s 732 mmHg 90%
14:00 +14°C° 0.1 mm 2 m/s 731 mmHg 92%
15:00 +14°C° 0.1 mm 2 m/s 731 mmHg 93%
16:00 +14°C° 0.1 mm 2 m/s 731 mmHg 94%
17:00 +14°C° 0.1 mm 2 m/s 732 mmHg 95%
18:00 +14°C° 0.1 mm 1 m/s 732 mmHg 96%
19:00 +14°C° 0 mm 1 m/s 732 mmHg 96%
20:00 +14°C° 0 mm 1 m/s 732 mmHg 97%
21:00 +14°C° 0 mm 1 m/s 733 mmHg 97%
22:00 +14°C° 0 mm 1 m/s 733 mmHg 97%
23:00 +14°C° 0 mm 1 m/s 733 mmHg 97%

Mâine, 27 Ianuarie, Miercuri

Timp Temperatura Precipitaţii Vânt Presiune Umiditate
00:00 +14°C° 0 mm 1 m/s 733 mmHg 97%
01:00 +14°C° 0.1 mm 1 m/s 732 mmHg 97%
02:00 +14°C° 0.1 mm 1 m/s 732 mmHg 98%
03:00 +14°C° 0.1 mm 1 m/s 732 mmHg 98%
04:00 +14°C° 0 mm 1 m/s 732 mmHg 98%
05:00 +13°C° 0 mm 1 m/s 732 mmHg 98%
06:00 +13°C° 0 mm 1 m/s 731 mmHg 98%
07:00 +14°C° 0 mm 1 m/s 732 mmHg 97%
08:00 +14°C° 0 mm 1 m/s 732 mmHg 96%
09:00 +14°C° 0 mm 1 m/s 733 mmHg 95%
10:00 +15°C° 0 mm 1 m/s 733 mmHg 89%
11:00 +16°C° 0 mm 1 m/s 733 mmHg 83%
12:00 +18°C° 0 mm 1 m/s 733 mmHg 77%
13:00 +19°C° 0 mm 1 m/s 733 mmHg 76%
14:00 +19°C° 0 mm 1 m/s 732 mmHg 75%
15:00 +19°C° 0 mm 1 m/s 732 mmHg 73%
16:00 +18°C° 0 mm 1 m/s 732 mmHg 78%
17:00 +16°C° 0 mm 1 m/s 732 mmHg 83%
18:00 +14°C° 0 mm 0 m/s 733 mmHg 88%
19:00 +13°C° 0 mm 0 m/s 733 mmHg 89%
20:00 +13°C° 0 mm 0 m/s 733 mmHg 89%
21:00 +12°C° 0 mm 0 m/s 733 mmHg 90%
22:00 +12°C° 0 mm 0 m/s 733 mmHg 90%
23:00 +12°C° 0 mm 1 m/s 733 mmHg 90%

Poimâine, 28 Ianuarie, Joi

Timp Temperatura Precipitaţii Vânt Presiune Umiditate
00:00 +12°C° 0 mm 1 m/s 733 mmHg 90%
01:00 +12°C° 0 mm 1 m/s 733 mmHg 90%
02:00 +12°C° 0 mm 1 m/s 733 mmHg 89%
03:00 +11°C° 0 mm 1 m/s 732 mmHg 89%
04:00 +11°C° 0 mm 1 m/s 732 mmHg 88%
05:00 +11°C° 0 mm 1 m/s 732 mmHg 87%
06:00 +11°C° 0 mm 1 m/s 732 mmHg 87%
07:00 +12°C° 0 mm 1 m/s 732 mmHg 83%
08:00 +14°C° 0 mm 1 m/s 733 mmHg 79%
09:00 +15°C° 0 mm 1 m/s 733 mmHg 75%
10:00 +18°C° 0 mm 1 m/s 733 mmHg 68%
11:00 +19°C° 0 mm 1 m/s 733 mmHg 61%
12:00 +21°C° 0 mm 1 m/s 734 mmHg 54%
13:00 +22°C° 0 mm 1 m/s 733 mmHg 51%
14:00 +22°C° 0 mm 1 m/s 733 mmHg 49%
15:00 +23°C° 0 mm 1 m/s 732 mmHg 47%
16:00 +19°C° 0 mm 0 m/s 732 mmHg 56%
17:00 +17°C° 0 mm 0 m/s 732 mmHg 65%
18:00 +15°C° 0 mm 0 m/s 732 mmHg 74%
19:00 +14°C° 0 mm 0 m/s 732 mmHg 75%
20:00 +14°C° 0 mm 0 m/s 732 mmHg 76%
21:00 +13°C° 0 mm 0 m/s 732 mmHg 77%
22:00 +13°C° 0 mm 0 m/s 732 mmHg 77%
23:00 +13°C° 0 mm 0 m/s 732 mmHg 77%

29 Ianuarie, Vineri

Timp Temperatura Precipitaţii Vânt Presiune Umiditate
00:00 +12°C° 0 mm 0 m/s 732 mmHg 78%
01:00 +12°C° 0 mm 0 m/s 731 mmHg 77%
02:00 +13°C° 0 mm 1 m/s 731 mmHg 77%
03:00 +13°C° 0 mm 1 m/s 731 mmHg 77%
04:00 +13°C° 0 mm 1 m/s 730 mmHg 77%
05:00 +11°C° 0 mm 0 m/s 730 mmHg 77%
06:00 +11°C° 0 mm 0 m/s 730 mmHg 76%
07:00 +13°C° 0 mm 0 m/s 730 mmHg 72%
08:00 +14°C° 0 mm 0 m/s 731 mmHg 68%
09:00 +15°C° 0 mm 0 m/s 731 mmHg 64%
10:00 +19°C° 0 mm 1 m/s 731 mmHg 58%
11:00 +21°C° 0 mm 1 m/s 731 mmHg 52%
12:00 +22°C° 0 mm 1 m/s 731 mmHg 46%
13:00 +23°C° 0 mm 1 m/s 730 mmHg 46%
14:00 +23°C° 0 mm 2 m/s 730 mmHg 47%
15:00 +23°C° 0 mm 2 m/s 729 mmHg 48%
16:00 +20°C° 0 mm 2 m/s 729 mmHg 58%
17:00 +18°C° 0 mm 2 m/s 729 mmHg 67%
18:00 +16°C° 0 mm 2 m/s 729 mmHg 77%
19:00 +15°C° 0 mm 2 m/s 729 mmHg 79%
20:00 +14°C° 0 mm 2 m/s 729 mmHg 82%
21:00 +14°C° 0 mm 2 m/s 729 mmHg 84%
22:00 +13°C° 0 mm 2 m/s 729 mmHg 87%
23:00 +13°C° 0 mm 2 m/s 729 mmHg 90%

30 Ianuarie, Sâmbătă

Timp Temperatura Precipitaţii Vânt Presiune Umiditate
00:00 +13°C° 0 mm 2 m/s 729 mmHg 92%
01:00 +12°C° 0 mm 3 m/s 728 mmHg 92%
02:00 +12°C° 0 mm 3 m/s 728 mmHg 92%
03:00 +12°C° 0 mm 4 m/s 728 mmHg 92%
04:00 +12°C° 0 mm 4 m/s 727 mmHg 92%
05:00 +12°C° 0 mm 4 m/s 727 mmHg 92%
06:00 +12°C° 0 mm 5 m/s 726 mmHg 91%
07:00 +12°C° 0.1 mm 5 m/s 727 mmHg 91%
08:00 +12°C° 0.1 mm 5 m/s 727 mmHg 90%
09:00 +12°C° 0.1 mm 5 m/s 727 mmHg 89%
10:00 +13°C° 0.1 mm 6 m/s 727 mmHg 83%
11:00 +14°C° 0.1 mm 7 m/s 727 mmHg 77%
12:00 +13°C° 0.1 mm 8 m/s 727 mmHg 71%
13:00 +14°C° 0 mm 7 m/s 727 mmHg 68%
14:00 +14°C° 0 mm 7 m/s 727 mmHg 64%
15:00 +14°C° 0 mm 7 m/s 727 mmHg 61%
16:00 +13°C° 0 mm 6 m/s 727 mmHg 66%
17:00 +12°C° 0 mm 4 m/s 727 mmHg 71%
18:00 +10°C° 0 mm 3 m/s 728 mmHg 76%
19:00 +10°C° 0 mm 3 m/s 728 mmHg 78%
20:00 +10°C° 0 mm 3 m/s 729 mmHg 79%
21:00 +9°C° 0 mm 2 m/s 729 mmHg 80%
22:00 +9°C° 0 mm 2 m/s 729 mmHg 82%
23:00 +8°C° 0 mm 2 m/s 730 mmHg 84%

31 Ianuarie, Duminică

Timp Temperatura Precipitaţii Vânt Presiune Umiditate
00:00 +8°C° 0 mm 2 m/s 730 mmHg 86%
01:00 +8°C° 0 mm 2 m/s 730 mmHg 88%
02:00 +8°C° 0 mm 1 m/s 730 mmHg 90%
03:00 +8°C° 0 mm 1 m/s 730 mmHg 92%
04:00 +7°C° 0 mm 1 m/s 729 mmHg 92%
05:00 +7°C° 0 mm 1 m/s 729 mmHg 93%
06:00 +7°C° 0 mm 1 m/s 729 mmHg 93%
07:00 +8°C° 0 mm 1 m/s 730 mmHg 89%
08:00 +9°C° 0 mm 1 m/s 730 mmHg 84%
09:00 +10°C° 0 mm 1 m/s 731 mmHg 80%
10:00 +10°C° 0 mm 2 m/s 730 mmHg 72%
11:00 +13°C° 0 mm 2 m/s 730 mmHg 64%
12:00 +14°C° 0 mm 3 m/s 730 mmHg 57%
13:00 +14°C° 0 mm 3 m/s 730 mmHg 59%
14:00 +16°C° 0 mm 3 m/s 729 mmHg 61%
15:00 +15°C° 0 mm 4 m/s 729 mmHg 63%
16:00 +14°C° 0 mm 3 m/s 729 mmHg 69%
17:00 +13°C° 0 mm 3 m/s 729 mmHg 74%
18:00 +13°C° 0 mm 2 m/s 729 mmHg 80%
19:00 +13°C° 0 mm 2 m/s 730 mmHg 81%
20:00 +13°C° 0 mm 2 m/s 730 mmHg 82%
21:00 +13°C° 0 mm 2 m/s 730 mmHg 83%
22:00 +12°C° 0 mm 2 m/s 730 mmHg 86%
23:00 +12°C° 0 mm 2 m/s 730 mmHg 88%
Arată mai mult

Formular de consimțământ

Meteoprog și furnizorii noștri de servicii pot stoca și accesa date personale, precum cookies, identificatori de dispozitiv sau alte tehnologii similare pe dispozitivul dumneavoastră și procesa astfel de date pentru a personaliza conținutul și reclamele, dar și pentru a oferi caracteristici de social media și pentru a analiza traficul.

  • Stocarea și/sau accesarea informațiilor pe dispozitivul dumneavoastră

    Cookies, identificatori de dispozitiv sau alte informații pot fi stocate sau accesate pe dispozitiv în scopurile indicate mai sus.

  • Reclame și conținut personalizat, evaluarea reclamelor și a conținutului, informații despre audiențe și dezvoltarea produselor

    Reclamele și conținutul pot fi personalizate pe baza unui profil. Pot fi adăugate date suplimentare pentru a personaliza mai bine reclamele și conținutul. Performanța reclamelor și conținutului poate fi măsurată. Pot fi obținute informații despre utilizatorii care au văzut reclamele și conținutul. Aceste date pot fi utilizate pentru a dezvolta sau îmbunătăți experiența utilizatorilor, sistemele și software-ul.

Dând clic pe ‘Sunt de acord’, permiteți utilizarea cookie-urilor menționate, a identificatorilor de dispozitiv, balizelor web sau altor tehnologii similare. Setările pot fi modificate din browser-ul dispozitivului dumneavoastră.

În anumite scopuri, interesele legitime pot prima asupra consimțământului. Puteți citi mai multe informații în acest sens în Politica privind Confidențialitatea Datelor și Cookie.